750  
ASUS42 KILM 150214  
RWRILM  
RWRILM  
REGIONAL HOURLY WEATHER ROUNDUP  
NATIONAL WEATHER SERVICE WILMINGTON NC  
1000 PM EDT FRI AUG 14 2020  
 
NOTE: "FAIR" INDICATES FEW OR NO CLOUDS BELOW 12,000 FEET WITH NO  
SIGNIFICANT WEATHER AND/OR S TO VISIBILITY
.  
   
..............WFO WILMINGTON COUNTY WARNING AREA............
 
 
   
.....COASTAL NC AND SC COUNTIES...
 
 
 
CITY SKY/WX TMP DP RH WIND PRES REMARKS
 
WILMINGTON PTCLDY 81 77 88 SW6 29.95R  
N MYRTLE BEACH PTCLDY 83 79 88 SW14 29.94R HX 94  
MYRTLE BEACH MOCLDY 82 79 90 SW9 29.96R HX 92  
   
.....INLAND NC AND SC COUNTIES....
 
 
 
CITY SKY/WX TMP DP RH WIND PRES REMARKS
 
LUMBERTON NOT AVBL  
ELIZABETHTOWN CLOUDY 80 76 87 SE6 29.95R  
WHITEVILLE NOT AVBL  
FLORENCE PTCLDY 80 74 81 CALM 29.95R  
DARLINGTON MOCLDY 76 73 91 CALM 29.95S  
KINGSTREE FAIR 77 75 94 CALM 29.95S  
HARTSVILLE MOCLDY 75 72 88 CALM 29.96R  
BENNETTSVILLE FAIR 73 73 100 CALM 29.94R  
CONWAY FAIR 79 77 94 S3 29.95R  
GEORGETOWN FAIR 79 75 89 CALM 29.97R  
MARION FAIR 79 75 89 CALM 29.95R  
   
...................REST OF NORTH CAROLINA...................
 
 
   
........EASTERN NC......
 
 
 
CITY SKY/WX TMP DP RH WIND PRES REMARKS
 
CAPE HATTERAS TSTM 77 74 90 CALM 29.93S FOG  
JACKSONVILLE PTCLDY 76 75 97 CALM 29.96R  
MOREHEAD CITY PTCLDY 82 78 88 SW7 29.94R HX 91  
KENANSVILLE PTCLDY 75 73 94 CALM 29.95S  
NEW BERN PTCLDY 78 76 93 SW5 29.95R  
ELIZABETH CITY PTCLDY 79 77 94 N7 29.93S  
   
........CENTRAL NC......
 
 
 
CITY SKY/WX TMP DP RH WIND PRES REMARKS
 
RALEIGH DURHAM LGT RAIN 73 72 96 NE7 29.97S  
ROCKY MOUNT CLOUDY 76 76 100 CALM 29.95S  
ROANOKE RAPIDS NOT AVBL  
FAYETTEVILLE MOCLDY 76 73 91 E6 29.94R  
HOFFMAN MOCLDY 78 76 94 CALM 29.95R  
   
........WESTERN NC......
 
 
 
CITY SKY/WX TMP DP RH WIND PRES REMARKS
 
CHARLOTTE MOCLDY 79 71 76 E8 29.95R  
GREENSBORO CLOUDY 74 74 100 NE5 29.97R  
HICKORY NOT AVBL  
BOONE NOT AVBL  
ASHEVILLE NOT AVBL  
   
....................REST OF SOUTH CAROLINA..................
 
 
   
........EASTERN SC......
 
 
 
CITY SKY/WX TMP DP RH WIND PRES REMARKS
 
CHARLESTON LGT RAIN 79 76 90 CALM 29.95S  
BEAUFORT MCAS CLOUDY 81 75 82 CALM 29.95R  
HILTON HEAD N/A N/A N/A N/A MISG N/A  
   
........CENTRAL SC......
 
 
 
CITY SKY/WX TMP DP RH WIND PRES REMARKS
 
COLUMBIA CLOUDY 80 74 81 SE3 29.94R  
ORANGEBURG CLOUDY 76 75 97 E3 29.95S  
SUMTER SHAW PTCLDY 80 75 82 S7 29.94R  
   
........WESTERN SC......
 
 
 
CITY SKY/WX TMP DP RH WIND PRES REMARKS
 
GREENVILLE NOT AVBL  
ROCK HILL PTCLDY 77 73 87 CALM 29.96R  
ANDERSON LGT RAIN 78 73 84 SW6 29.95R  
CLEMSON NOT AVBL  
GREENWOOD MOCLDY 75 73 93 S5 29.96R  
 
   
..................COASTAL AND OFFSHORE REPORTS...............
 
 
   
...............LOCAL PIERS AND NC RESERVE.............
 
 
 
STATION/POSITION TIME SKY/WX TEMP WIND PRES VSBY
 
AIR SEA DIR/SP/G  
(UTC) (F) (DEG/KT/KT) (MB) (MI)  
JOHNY MRCER PIER 0124 82 82 230/ 7/ 11 1013.6  
NC RESRV MASNBRO NOT AVBL  
OCEAN CREST PIER NOT AVBL  
SPRINGMAID PIER 0124 82 N/A  
 
   
...............COASTAL AND OFFSHORE BUOYS.............
 
 
 
STATION/POSITION TIME SKY/WX TEMP WIND PRES VSBY
 
AIR SEA DIR/SP/G  
(UTC) (F) (DEG/KT/KT) (MB) (MI)  
DIMNDSHOAL 41025 0150 82 83 240/ 16/ 19 N/A  
WVE H/P(F/S)= 3/ 5 SWL H/P/D(F/S/D)= 2/200/ 7  
 
CAPE LOOKOUT 0200 82 220/ 8/ 11 1014.1R  
ONSLOW BAY 41036 NOT AVBL  
ONSLOW BAY 41064 0108 82 250/ 14/ 19 1013.8R  
ONSLOW BAY 41159 0126 83 N/A  
WVE H/P(F/S)= 4/ 6  
 
MASNBO INL 41110 0137 82 N/A  
WVE H/P(F/S)= 2/ 6  
 
WILM HARBR 41108 0130 84 N/A  
WVE H/P(F/S)= 3/ 6  
 
27SE WRITB 41037 0108 82 83 250/ 14/ 19 1014.2R  
FRYING PAN 41013 0150 82 210/ 14/ 16 1013.8R  
WVE H/P(F/S)= 3/ 6 SWL H/P/D(F/S/D)= 2/200/ 6  
 
SUNST NRSH 41024 0108 83 84 240/ 16/ 19 1013.7R  
CAPRS NRSH 41029 0108 84 85 210/ 16/ 21 1013.9R  
EDISTO 41004 0150 83 210/ 16/ 19 1014.6R  
WVE H/P(F/S)= 3/ 4 SWL H/P/D(F/S/D)= 2/140/ 9  
 
   
.........OFFSHORE BUOYS BEYOND 100 NM OFFSHORE........
 
   
....IN A TRIANGLE---HAT TO BERMUDA TO BAHAMAS TO HAT..
 
 
 
 
STATION/POSITION TIME SKY/WX TEMP WIND PRES VSBY
 
AIR SEA DIR/SP/G  
(UTC) (F) (DEG/KT/KT) (MB) (MI)  
150E HAT 41001 0150 82 83 230/ 16/ 19 1013.7R  
WVE H/P(F/S)= 7/ 8 SWL H/P/D(F/S/D)= 3/200/11  
 
W BERMUDA 41048 0200 84 170/ 8/ 10 1018.0  
ATLANTIC S 41049 0200 83 100/ 8/ 12 1019.2  
E BAHAMAS 41046 0200 85 100/ 12/ 16 1017.2  
NE BAHAMAS 41047 0150 85 1017.8R  
WVE H/P(F/S)= 3/ 7 SWL H/P/D(F/S/D)= 3/130/ 7  
 
120E CANVRL41010 0150 85 160/ 10/ 12 1016.4F  
WVE H/P(F/S)= 2/ 6 SWL H/P/D(F/S/D)= 2/100/ 6  
 
END  
 
 
CLICK HERE TO GO TO PREVIOUS BULLETINS.

The Nexlab NC Page
The Nexlab SC Page Main Text Page